STARLINK-34289, 64225

Orbit data source: Space-Track

STARLINK-34289, 64225 is a payload satellite owned by SpaceX/Seattle (US) in LEO that was launched on Thu, 05 Jun 2025 UTC via an FALCON 9 launch vehicle from the Air Force Western Test Range (AFWTR). Payload-class satellites include a variety of spacecraft equipped with specific instruments for various scientific and technological missions. These include communications satellites like Starlink; space stations such as the ISS; scientific satellites like the Hubble; Earth observation satellites from companies like Planet Labs, Umbra, and HawkEye 360; GPS; miniature CubeSats for education and research; and military/defense satellites.

Loading next visibility...
Identifier
64225, 2025-117Y
Orbit
LEO
Last TLE update
3 hours ago
Origin
Manufacturer
SpaceX/Seattle
Mission
Operational spacecraft
Bus & Motor
STARLINK V2MO, Unknown motor
Mass
575 kg wet, ~530 kg dry
Launch date (UTC)
2025-06-05 (2 weeks ago)
Launch vehicle
FALCON 9
Launch site
Air Force Western Test Range (AFWTR)
Object type
Payload
Rocket body
Debris
Shape & HBR
Unknown
Radar Cross Section
Large (>1 m²)

Expand to show TLE details & history

TLE from 3 hours ago
0 STARLINK-34289
1 64225U 25117Y   25170.16670139 -.01554386  00000-0 -15397-1 0  9993
2 64225  53.1605 189.1977 0001342 101.3670 164.6689 15.68069941  3070
Epoch: 2025-06-19T04:00Z
TLE epoch observation values (Epoch: 2025-06-19T04:00:03Z)
Latitude
-53.13353°
Longitude
124.97645°
Altitude
383.753 km
Speed
7.679 km/s
True Right ascension
06h 10m 30s
True Declination
-52° 57' 33"
Sunlit
Object was in daylight at epoch
Visualization orbit readout
Latitude
-28.45175°
Longitude
-162.93846°
Altitude
374.935 km
Speed
7.684 km/s
Apparent Right ascension
08h 50m 02s
Apparent Declination
-39° 40' 18"
Sunlit
Object is in daylight
Visualization observer readout
Local Sidereal Time
18:08:58
Azimuth
257.229° W
Elevation
-59.328°
Doppler factor
1
Orbital elements
Apogee altitude
365.589 km
Perigee altitude
363.78 km
Semi-major axis
6,742.821 km
Eccentricity
0.00013
Inclination
53.1605°
RAAN
189.1977°
Arg. of periapsis
101.367°
True anomaly
Unknown
Mean anomaly
164.6689°
Eccentric anomaly
Unknown
Mean motion
3.91995 °/min
Orbital period
91.84 mins
BSTAR
-0.015397
Loading maneuver chart data...
Loading SW <> Apogee altitude chart data...
Loading historical data...
Loading historical data...
Loading historical data...
Loading historical data...
Loading historical data...
Loading historical data...
Loading historical data...

STARLINK-34289 Visibility forecast

Observer location: undefined°, undefined°

Span
Click to sort rows by Start time (UTC) header in descending order
Start Az.
Max El. time (UTC)
Max El. Az.
Max El.
End time (UTC)
End Az.
4 mins2025-06-19 11:02:21.339Z312.304° NW2025-06-19 11:03:21.339Z325.602° NNW44.378°2025-06-19 11:06:21.339Z129.772° SE
4 mins2025-06-20 03:33:21.339Z199.053° SSW2025-06-20 03:35:21.339Z105.691° ESE33.891°2025-06-20 03:37:21.339Z63.487° ENE
|